Regional Weather Roundup
Issued by NWS Cleveland, OH

Home | Current Version | Previous Version | Text Only | Print | Product List | Glossary Off
Versions: 1 2 3 4 5 6 7 8 9 10 11 12 13 14 15 16 17 18 19 20 21 22 23 24 25 26 27 28 29 30 31 32 33 34 35 36 37 38 39 40 41 42 43 44 45 46 47 48 49 50

000
ASUS41 KCLE 281300
RWRCLE
OHIO REGIONAL WEATHER ROUNDUP
NATIONAL WEATHER SERVICE WILMINGTON, OH
900 AM EDT TUE JUL 28 2015

NOTE: "FAIR" INDICATES FEW OR NO CLOUDS BELOW 12,000 FEET WITH NO
SIGNIFICANT WEATHER AND/OR OBSTRUCTIONS TO VISIBILITY.

OHZ001>008-015>018-024>027-034-035-043-044-281400-
   NORTHWEST OHIO

CITY           SKY/WX    TMP DP  RH WIND       PRES   REMARKS
DEFIANCE       SUNNY     74  66  76 E6        30.04S
FINDLAY        SUNNY     75  65  70 E5        30.03F
TOLEDO EXPRESS SUNNY     75  68  78 E5        30.04S
TOLEDO EXEC    SUNNY     78  69  73 E5        30.05S
LIMA           SUNNY     76  65  68 SE8       30.04S
$$

OHZ009>014-019>023-028>033-038-089-281400-
   NORTHEAST OHIO

CITY           SKY/WX    TMP DP  RH WIND       PRES   REMARKS
CLE-HOPKINS    SUNNY     77  64  64 CALM      30.06S
CLE-LAKEFRONT  SUNNY     77  64  64 W3        30.03S
CUY CO. ARPT   NOT AVBL
LORAIN-ELYRIA  SUNNY     75  65  70 CALM      30.06R
ASHTABULA      SUNNY     73  67  81 CALM      30.07S
AKRON-CANTON   SUNNY     75  66  73 E5        30.06S
WOOSTER        NOT AVBL
MANSFIELD      SUNNY     76  65  68 SE6       30.06S
YOUNGSTOWN     SUNNY     75  68  78 SE6       30.07R
$$

OHZ042-051>053-060>062-070>072-077>081-281400-
  SOUTHWEST OHIO

CITY           SKY/WX    TMP DP  RH WIND       PRES   REMARKS
CINC-COVINGTON MOSUNNY   78  73  84 E5        30.01S
CINC-LUNKEN    SUNNY     74  73  97 NE5       30.00F FOG
HAMILTON       SUNNY     78  74  87 E3        30.01F
DAYTON         NOT AVBL
WRIGHT-PAT AFB NOT AVBL
DAYTON GENERAL   N/A    N/A N/A N/A MISG      30.02S
WILMINGTON     SUNNY     74  70  87 E5        30.02F
$$

OHZ036-037-039>041-045>050-054>059-063>069-073>076-082>088-281400-
  CENTRAL AND SOUTHEAST OHIO

CITY           SKY/WX    TMP DP  RH WIND       PRES   REMARKS
COLUMBUS       PTSUNNY   76  66  71 CALM      30.02F
OSU AIRPORT    MOSUNNY   74  66  76 CALM      30.03S
BOLTON FIELD   PTSUNNY   73  70  88 CALM      30.03F
RICKENBACK AFB NOT AVBL
NEWARK         SUNNY     75  67  76 N3        30.03S
MARION         SUNNY     75  64  68 E5        30.05R
LANCASTER      CLOUDY    76  68  76 CALM      30.03S
ZANESVILLE     SUNNY     73  65  75 NE3       30.03S
NEW PHILLY     SUNNY     73  68  84 CALM      30.05S
$$



USA.gov is the U.S. government's official web portal to all federal, state and local government web resources and services.